STARLINK-35972, 66638

Orbit data source: Space-Track

STARLINK-35972, 66638 is a payload satellite owned by SpaceX/Seattle (US) in LEO that was launched on Sun, 23 Nov 2025 UTC via an FALCON 9 launch vehicle from the Air Force Western Test Range (AFWTR). Payload-class satellites include a variety of spacecraft equipped with specific instruments for various scientific and technological missions. These include communications satellites like Starlink; space stations such as the ISS; scientific satellites like the Hubble; Earth observation satellites from companies like Planet Labs, Umbra, and HawkEye 360; GPS; miniature CubeSats for education and research; and military/defense satellites.

Loading next visibility...
Identifier
66638, 2025-271X
Orbit
LEO
Country
Flag of USUS
Related business
Manufacturer
SpaceX/Seattle
Mission
Operational Commercial Communications
Bus & Motor
STARLINK V2MO, Unknown motor
Mass
575 kg wet, ~530 kg dry
Launch date (UTC)
2025-11-23 (1 month ago)
Launch vehicle
FALCON 9
Launch site
Air Force Western Test Range (AFWTR)
Object type
Payload
Rocket body
Debris
Shape & HBR
Box + 2 Pan, 17.7 m
Radar Cross Section
36.964 m²

Expand to show TLE details & history
Last TLE update: 9 hours ago

TLE from 9 hours ago
0 STARLINK-35972
1 66638U 25271X   25355.25001157  .00063674  00000-0  15902-2 0  9992
2 66638  53.1597 146.6154 0001198 113.3752 268.8532 15.39589062  5613
Epoch: 2025-12-21T06:00Z
TLE epoch observation values (Epoch: 2025-12-21T06:00:00.999Z)
Latitude
17.64152°
Longitude
-19.74831°
Altitude
447.647 km
Speed
7.646 km/s
True Right ascension
10h 41m 17s
True Declination
17° 32' 17"
Sunlit
Object was in full shadow at epoch
Visualization orbit readout
Latitude
Unknown
Longitude
Unknown
Altitude
Unknown
Speed
Unknown
Apparent Right ascension
Unknown
Apparent Declination
Unknown
Sunlit
N/A
Visualization observer readout
Local Sidereal Time
13:58:17
Azimuth
Unknown
Elevation
Unknown
Doppler factor
Unknown
Orbital elements
Apogee altitude
448.399 km
Perigee altitude
446.763 km
Semi-major axis
6,825.718 km
Eccentricity
0.00012
Inclination
53.1597°
RAAN
146.6154°
Arg. of periapsis
113.3752°
True anomaly
268.83947°
Mean anomaly
268.8532°
Eccentric anomaly
268.84634°
Mean motion
3.84876 °/min
Orbital period
93.54 mins
BSTAR
0.0015902
Loading maneuver chart data...
Computing Atmospheric mass density...
Loading historical data...
Loading historical data...
Loading historical data...
Loading historical data...
Loading historical data...
Loading historical data...
Loading historical data...

Documentation

Showing up to 5 results
|